Dewpoint
-27 -28 -28 -28 -28 -28 -28 -29 -30 -30 -31 -31 -31 -31 -31 -31 -31 -30 -4 -6 -7 -11 -14 -21 -10 -1 -3 -3 -1 -2 -1 -1 -2 -4 -5 -8 -9 -11 -14 -13 -14 -13 -14 -9 1
-27 -28 -27 -26 -27 -28 -29 -30 -30 -31 -31 -31 -31 -31 -31 -30 -29 -16 -6 -9 -11 -10 -10 -12 -15 -5 -4 -4 -5 -4 0 -1 -5 -6 -7 -9 -10 -11 -12 -12 -13 -13 -12 -12 -4
-26 -26 -25 -27 -29 -30 -32 -33 -34 -34 -35 -35 -35 -34 -32 -31 -3 -4 -20 -23 -26 -23 -11 -4 -12 -11 -8 -8 -7 -6 -2 -3 -5 -6 -7 -8 -8 -9 -10 -11 -12 -11 -11 -11 -10
-25 -24 -26 -29 -31 -33 -33 -33 -33 -33 -33 -33 -34 -34 -32 -23 -7 -8 -13 -18 -27 -27 -12 -4 -4 -10 -10 -9 -8 -7 -7 -6 -5 -6 -6 -6 -7 -7 -8 -7 -8 -9 -10 -10 -10
-23 -26 -29 -31 -31 -31 -31 -31 -31 -32 -33 -33 -33 -32 -28 1 -5 -11 -13 -22 -27 -10 0 -3 -5 -6 -9 -11 -12 -8 -9 -9 -7 -7 -6 -6 -7 -6 -6 -8 -8 -8 -8 -9 -9
-25 -28 -30 -30 -29 -29 -30 -31 -31 -32 -32 -32 -32 -29 -16 -2 -13 -14 -12 -13 -14 -13 -5 -5 -6 -7 -8 -9 -9 -10 -10 -11 -11 -9 -9 -7 -7 -8 -7 -7 -7 -7 -8 -8 -8
-25 -28 -29 -28 -28 -28 -29 -31 -32 -31 -31 -30 -27 -19 0 -5 -10 -9 -10 -9 -11 -15 -15 -11 -8 -7 -7 -6 -7 -9 -8 -10 -10 -11 -11 -9 -7 -6 -7 -7 -7 -6 -7 -7 -7
-25 -27 -27 -27 -27 -28 -31 -31 -30 -29 -28 -24 -13 2 1 -7 -7 -9 -9 -6 -5 -6 -12 -14 -13 -10 -7 -6 -6 -5 -6 -4 -7 -8 -8 -7 -3 -7 -7 -6 -7 -6 -6 -7 -6
-25 -26 -26 -26 -28 -30 -31 -26 -19 -14 -19 -16 0 4 -2 -4 -11 -5 -5 -6 -5 -5 -5 -7 -15 -12 -8 -4 -3 -4 -3 -4 -6 -11 -12 -12 -9 -11 -11 -9 -9 -10 -7 -7 -7
-24 -24 -25 -27 -29 -31 -28 -11 -11 -10 -4 -1 1 -1 -2 -8 -11 -10 -11 -13 -8 -10 -6 -5 -10 -11 -10 -7 -3 -4 -6 -7 -7 -11 -12 -10 -9 -11 -11 -9 -9 -7 -7 -8 -8
-23 -24 -26 -28 -29 -25 -21 -8 -9 -2 -1 -11 -11 -3 -9 -14 -12 -9 -8 -9 -12 -14 -8 -6 -6 -8 -10 -10 -10 -10 -9 -8 -10 -14 -12 -10 -9 -12 -9 -9 -12 -12 -10 -10 -10
-22 -25 -27 -29 -28 -11 -5 -6 -6 -6 -5 -10 -11 -12 -13 -12 -9 -9 -7 -10 -14 -13 -15 -7 -4 -6 -10 -14 -11 -9 -7 -7 -10 -11 -11 -12 -12 -14 -14 -14 -13 -13 -14 -13 -12
-24 -26 -28 -29 -17 -5 -5 -6 -6 -3 -4 -9 -10 -10 -9 -8 -7 -8 -9 -8 -8 -8 -11 -10 -9 -9 -8 -9 -11 -8 -7 -8 -7 -10 -11 -11 -11 -10 -11 -10 -11 -11 -11 -10 -10
-25 -27 -27 -15 -3 -6 -4 -6 -5 -1 -1 -7 -11 -9 -7 -7 -10 -10 -9 -10 -12 -9 -7 -7 -11 -14 -12 -8 -10 -7 -10 -8 -6 -6 -6 -11 -5 -9 -9 -9 -9 -10 -10 -9 -2
-26 -27 -23 -22 -11 -6 -6 -5 -4 0 2 -12 -10 -5 -9 -10 -13 -16 -17 -20 -17 -11 -9 -7 -9 -8 -11 -9 -9 -6 -9 -7 -6 -5 -5 -5 -4 -6 -7 -8 -9 -3 -1 0 1
-22 -22 -12 -4 -2 -4 -6 -11 -1 3 1 -15 -17 -13 -12 -13 -14 -16 -20 -22 -19 -13 -9 -9 -12 -10 -9 -13 -9 -5 -7 -6 -5 -4 -0 -4 -3 -4 -5 -8 -3 1 1 2 3
-18 -17 -16 -6 -2 -7 -17 -2 -0 -1 -18 -15 -13 -13 -12 -13 -15 -17 -18 -19 -16 -4 -4 -4 -6 -7 -9 -14 -4 -4 -1 4 5 3 3 -4 -4 -4 -6 1 1 1 1 3 4
-16 -13 -11 -3 -11 -11 -1 -3 -3 -13 -15 -13 -12 -13 -12 -14 -11 -8 -9 -10 -11 -3 1 2 -1 -7 -7 -5 1 1 -0 4 5 4 2 -4 -2 -2 -5 -1 -0 2 2 3 5
-7 -4 -2 -4 -13 -1 -1 -1 -7 -10 -13 -12 -12 -11 -13 -13 -13 -9 -9 -11 -12 -1 3 1 -1 -6 -7 -2 1 2 3 2 4 1 6 7 -4 1 1 2 -0 0 2 4 5
-2 -2 -3 -16 -11 0 -1 -2 -11 -13 -13 -13 -10 -11 -9 -12 -11 -11 -11 -13 -11 -1 -2 -0 3 -2 -4 -3 1 1 -1 2 2 9 8 8 4 8 6 2 -2 -2 2 4 5
-3 -4 -2 -13 -2 -1 -0 -8 -11 -13 -14 -12 -11 -10 -10 -9 -7 -6 -6 -9 0 -3 -4 -3 2 1 2 2 1 -3 2 1 2 2 6 4 6 6 4 -1 -2 1 2 4 5
-2 -1 -3 -6 -1 -7 -5 -10 -13 -12 -13 -13 -13 -11 -9 -8 -7 -6 -7 -10 -5 -4 -2 -2 5 3 5 -0 -0 -7 -0 3 4 3 1 6 9 5 2 -3 1 2 2 4 3
-3 -5 -10 -1 0 -5 -10 -11 -12 -12 -12 -11 -10 -10 -10 -9 -5 -8 -8 -11 -3 -2 -1 2 2 5 4 3 -2 -5 -5 -1 4 2 7 7 9 5 2 1 2 3 2 3 2
-3 -0 -6 -5 -9 -6 -7 -9 -10 -11 -10 -8 -8 -9 -5 -3 -5 -3 -5 -7 -3 -0 -1 2 1 2 4 4 -1 -1 -2 2 4 5 4 4 6 3 0 1 2 2 2 2 2
-2 -1 -5 -3 -6 -6 -6 -5 -6 -6 -7 -8 -6 -8 -6 -4 -5 -7 -3 -1 -2 -1 2 3 3 4 4 4 3 5 4 6 5 2 1 -2 1 1 0 2 1 1 1 1 0
-3 -4 -11 -7 -5 -4 -4 -5 -6 -5 -5 -5 -3 -5 -5 -2 -3 -3 -3 -2 2 1 3 3 5 4 5 4 1 5 4 4 -3 -2 -4 -3 -1 -1 -1 -0 -0 -0 -1 -1 -2
-5 -7 -6 -8 -7 -6 -4 -7 -6 -4 -5 -6 -4 -3 -3 -1 -2 -1 -1 -2 -1 1 4 4 4 1 -2 -8 -6 -2 -5 -6 1 1 0 2 0 -2 -0 -1 -2 -3 -3 -3 -4
Wind_Speed
11 11 10 10 10 10 11 12 13 14 14 15 15 15 16 18 20 18 17 9 10 18 19 15 11 13 13 19 23 24 15 20 27 26 24 29 21 23 13 20 16 20 26 8 7
10 10 10 11 11 11 12 13 15 15 16 17 18 16 16 19 22 20 12 12 8 6 8 10 13 15 20 17 25 21 17 29 23 23 22 25 24 23 14 21 18 21 17 19 10
10 11 11 12 13 13 13 15 16 15 16 16 17 17 17 17 17 4 6 3 10 10 7 9 13 17 22 23 25 28 27 23 26 27 30 26 26 26 19 23 15 19 27 22 26
12 12 12 13 13 13 12 13 14 14 14 15 16 16 16 11 5 4 10 16 13 8 9 11 13 18 19 20 26 25 31 32 31 32 30 24 33 23 28 22 28 25 21 18 25
13 12 12 12 11 11 11 13 14 15 14 16 16 14 12 8 18 9 14 13 10 6 10 13 16 18 19 19 25 26 25 33 32 32 31 33 26 25 29 30 31 30 29 27 28
12 12 11 11 11 11 12 12 14 15 16 15 13 12 9 13 6 5 6 7 8 12 14 16 16 18 23 21 20 24 29 27 31 30 31 25 27 28 30 32 33 34 35 32 28
11 11 11 11 12 11 12 13 14 15 15 13 12 10 12 25 8 12 13 13 13 15 18 19 18 20 18 16 27 27 23 22 24 25 24 24 27 29 28 32 38 40 38 38 36
10 10 11 11 12 11 12 13 14 13 12 9 5 5 11 7 12 11 11 11 12 14 19 19 18 22 25 25 27 22 19 19 22 23 26 26 32 25 30 36 37 39 39 36 33
10 10 10 10 10 11 12 14 12 13 10 5 2 3 10 8 9 6 7 10 10 11 14 15 19 22 21 17 18 20 20 25 27 22 23 21 29 23 32 30 37 30 22 35 37
10 9 9 9 10 11 13 10 12 11 5 5 8 7 14 9 7 15 17 19 19 18 18 14 13 17 18 16 20 21 23 24 25 21 22 20 23 19 30 27 19 15 17 20 20
9 9 8 8 10 12 14 13 7 3 8 12 13 15 21 20 16 17 12 14 17 21 18 19 13 22 23 23 27 24 26 25 23 18 19 18 21 23 17 22 22 23 21 25 27
9 8 6 7 7 9 14 6 7 7 15 24 27 29 24 18 12 16 5 7 13 18 19 18 23 24 22 25 26 27 27 27 22 21 17 20 25 18 18 21 28 30 27 24 28
9 6 5 5 5 8 5 9 8 8 7 16 11 9 5 9 13 16 10 12 13 17 18 21 27 24 26 24 26 26 26 21 20 19 18 21 24 22 27 28 30 33 26 27 27
7 4 3 2 3 4 2 7 7 7 5 5 6 6 6 5 13 9 12 20 20 20 21 23 21 26 28 26 24 25 23 18 19 16 16 18 15 22 17 14 23 28 33 22 6
5 2 2 0 1 3 6 9 6 2 5 5 8 5 3 6 15 16 15 25 19 22 22 25 25 24 27 30 24 19 22 16 18 18 17 20 12 17 17 18 11 9 6 1 5
3 1 2 7 5 4 8 4 1 3 6 4 3 2 9 15 20 27 27 25 30 26 24 26 36 28 26 27 26 12 16 15 17 13 15 19 17 14 15 14 13 11 5 8 11
2 1 1 3 4 8 4 3 5 5 5 3 6 12 16 21 22 19 20 19 17 20 19 26 25 27 27 26 11 13 10 8 7 10 13 18 16 12 13 6 10 8 11 15 16
2 2 4 2 5 3 3 5 6 6 8 16 14 18 19 18 13 11 14 15 18 9 9 16 21 15 19 18 9 23 18 7 7 7 13 19 9 10 11 16 10 14 14 18 21
5 6 2 8 3 2 7 5 6 11 12 12 16 15 11 17 13 8 13 15 14 10 5 9 14 17 22 8 6 17 23 20 12 14 6 6 11 17 18 6 12 11 18 21 21
5 3 4 7 1 3 5 5 5 9 9 11 14 11 18 18 18 16 16 14 14 7 3 4 11 17 9 13 20 12 12 13 7 4 4 2 5 7 9 10 9 10 14 21 20
4 5 3 1 1 7 3 2 6 10 8 7 14 17 17 18 17 16 7 16 5 8 9 13 7 13 12 7 15 11 4 4 7 10 2 2 4 10 13 8 9 12 19 22 18
2 2 0 4 4 4 3 4 3 7 9 11 9 12 12 14 16 17 18 14 2 10 11 9 5 7 15 19 28 19 14 17 4 5 7 2 3 6 11 9 16 17 23 21 20
5 4 2 2 2 2 5 6 3 6 10 12 11 11 15 15 15 13 15 18 3 5 5 6 4 5 4 13 21 19 16 11 14 2 6 5 4 6 13 19 22 23 23 25 22
1 0 5 8 3 5 3 3 7 11 12 14 16 19 12 12 14 8 17 9 15 11 22 14 6 10 10 10 12 16 15 3 2 4 4 6 13 7 16 16 17 23 24 22 21
1 3 1 2 4 3 2 3 9 12 8 19 7 13 15 17 17 17 10 14 14 18 6 3 7 9 23 29 13 10 11 7 7 5 3 4 15 17 18 16 19 21 21 22 23
3 2 2 2 5 4 6 3 8 11 10 10 10 17 16 16 16 17 14 13 8 7 4 3 3 10 9 4 21 12 8 16 9 9 9 11 7 21 24 23 23 22 22 21 23
1 1 5 8 8 6 4 5 8 4 9 13 14 15 15 10 19 23 22 26 19 14 6 4 1 2 11 15 19 15 10 11 19 20 14 12 18 21 17 16 20 21 20 21 21
Wind_Direction
295 296 299 302 306 311 314 313 310 311 315 315 314 319 320 314 310 301 280 255 249 283 286 270 229 245 236 241 235 232 246 249 246 253 267 272 278 274 266 274 263 260 268 234 162
285 289 296 303 305 307 308 304 303 307 310 309 310 317 317 314 310 298 258 237 244 283 281 234 234 232 238 235 235 243 244 241 250 261 269 279 273 289 246 253 262 255 265 239 200
286 293 297 300 301 304 304 301 303 307 306 305 308 315 315 324 323 175 171 213 294 286 268 239 245 244 238 238 236 230 246 257 257 265 272 287 289 275 254 250 221 231 248 237 248
285 288 293 294 297 303 305 304 307 309 311 309 310 312 311 320 299 272 276 292 294 267 251 256 246 239 244 245 243 250 247 255 259 266 274 283 280 280 270 282 291 292 274 258 223
278 284 287 290 295 301 302 304 307 308 309 306 305 302 307 263 267 271 258 276 275 259 243 244 247 248 248 251 254 257 257 258 263 264 263 275 279 280 269 269 274 275 271 259 257
279 284 283 288 292 298 301 308 312 308 306 301 298 291 287 258 237 280 263 251 258 248 250 246 250 254 262 267 259 261 263 265 269 264 269 265 277 272 267 275 274 271 267 264 243
272 270 273 281 291 304 310 314 312 307 301 292 288 281 256 249 259 278 274 267 254 250 258 252 256 255 264 265 254 266 271 270 263 264 268 265 265 259 266 260 260 264 260 246 249
261 264 274 284 301 312 316 316 314 306 301 307 305 226 258 264 263 268 262 265 262 257 252 253 264 272 258 264 271 273 264 262 254 250 248 244 260 254 256 269 254 247 247 249 243
255 262 277 291 310 319 325 328 326 316 309 305 277 211 272 257 263 241 261 274 270 267 262 257 251 253 256 249 257 248 252 251 259 250 271 252 258 252 254 239 260 252 246 231 236
253 264 279 305 326 333 337 328 323 306 319 308 260 257 252 242 291 271 274 270 266 275 265 239 238 240 236 237 232 238 241 246 255 256 248 264 272 258 272 273 261 271 269 274 269
256 268 289 323 338 351 352 356 337 254 243 247 251 233 273 284 291 283 272 266 255 249 251 228 229 233 231 230 247 261 264 263 265 266 260 234 248 267 242 273 287 275 249 257 259
251 267 300 333 351 16 29 37 18 323 299 279 262 263 264 272 283 285 230 261 243 247 248 243 240 244 250 255 251 242 249 258 267 268 286 287 282 281 270 266 253 257 248 255 260
252 273 315 343 31 24 14 35 343 326 269 293 259 246 239 217 259 268 266 277 268 270 266 256 259 255 243 246 254 253 253 250 264 268 266 261 269 275 258 254 254 252 249 248 252
248 281 335 18 55 338 271 345 339 343 284 150 189 204 189 227 258 264 264 263 283 272 283 273 270 268 261 253 232 251 251 253 250 261 262 257 266 263 269 246 224 237 235 231 253
242 277 14 283 235 351 304 323 335 336 283 149 116 138 238 246 304 291 281 294 275 274 275 271 272 258 262 260 246 238 246 248 252 252 255 260 267 267 272 281 173 135 125 113 260
222 69 94 16 18 295 305 319 0 228 232 141 71 2 314 301 303 301 289 285 281 267 257 266 270 276 268 257 257 256 237 237 240 248 250 244 244 256 274 267 134 99 122 58 23
160 100 81 61 273 300 307 300 244 240 80 49 345 328 316 305 298 290 287 280 280 294 270 265 263 268 264 242 265 215 213 224 227 220 240 243 239 224 214 321 105 134 85 55 28
124 124 72 347 292 306 351 248 250 303 4 0 342 321 296 292 306 348 317 314 312 344 340 288 287 272 263 238 202 221 212 204 207 210 237 229 232 249 191 164 117 69 66 57 37
117 80 41 286 301 325 278 242 339 9 358 337 320 297 318 327 315 323 300 295 302 47 337 310 290 290 247 191 161 218 217 206 275 278 259 260 211 123 157 178 113 89 62 53 35
126 213 217 327 310 299 253 271 319 9 342 329 312 305 315 320 315 312 305 302 304 58 2 297 305 300 268 182 210 181 220 214 217 237 237 242 172 233 48 120 79 63 62 50 30
154 219 212 280 51 263 234 312 349 349 317 311 308 302 304 305 316 307 298 310 24 329 325 303 243 279 307 197 235 182 186 238 209 250 274 238 112 60 104 14 39 67 59 57 31
228 230 227 189 241 210 250 24 304 304 297 306 301 300 292 298 294 298 297 288 288 318 316 308 281 289 240 193 220 212 172 218 247 255 247 110 21 358 330 50 32 52 55 52 31
249 137 65 135 269 274 69 269 235 298 320 308 303 305 301 298 306 287 285 288 25 12 305 359 279 307 236 248 249 213 201 177 218 222 301 308 105 276 285 51 46 41 28 32 20
189 314 159 191 116 330 9 338 327 326 317 322 312 297 331 318 293 289 296 332 340 303 287 269 244 236 260 285 194 202 192 250 108 201 195 251 123 58 32 32 40 26 22 20 12
140 241 74 193 118 40 271 258 320 327 322 311 299 314 323 315 308 298 325 325 306 275 270 238 244 235 246 248 129 112 139 181 195 79 254 17 49 31 28 35 28 19 18 14 8
167 335 172 95 142 210 222 327 318 324 321 303 320 321 319 293 284 297 317 297 264 281 286 211 294 284 73 106 117 125 178 211 151 22 10 342 27 16 16 35 24 18 16 14 9
118 350 299 158 190 222 136 290 314 312 294 328 323 311 305 334 318 299 291 284 280 293 308 283 348 272 67 101 102 65 46 65 67 42 20 23 1 359 20 43 33 22 21 16 10
Height
1508 1507 1505 1504 1503 1502 1500 1498 1496 1494 1492 1490 1487 1486 1484 1480 1477 1474 1472 1474 1474 1472 1472 1471 1474 1476 1476 1476 1476 1476 1471 1458 1454 1454 1447 1445 1440 1438 1442 1443 1444 1448 1448 1452 1451
1505 1504 1503 1502 1501 1499 1498 1495 1493 1491 1489 1487 1485 1483 1481 1478 1472 1468 1468 1468 1471 1470 1467 1469 1470 1472 1473 1472 1474 1472 1462 1451 1451 1447 1442 1439 1438 1438 1438 1441 1443 1445 1448 1450 1451
1504 1502 1500 1499 1498 1497 1495 1492 1490 1489 1487 1484 1483 1481 1478 1475 1469 1465 1466 1465 1465 1467 1468 1468 1468 1468 1466 1466 1465 1464 1451 1454 1448 1446 1444 1439 1438 1437 1438 1436 1437 1442 1446 1447 1447
1502 1500 1499 1496 1495 1494 1492 1490 1488 1487 1485 1483 1481 1479 1477 1475 1469 1464 1466 1464 1462 1461 1464 1467 1465 1464 1462 1458 1458 1455 1450 1450 1448 1448 1446 1442 1440 1435 1434 1433 1436 1438 1440 1441 1443
1500 1498 1497 1495 1493 1491 1490 1488 1486 1485 1482 1480 1479 1478 1477 1474 1466 1461 1461 1462 1459 1461 1463 1464 1463 1461 1457 1455 1453 1447 1445 1443 1443 1443 1443 1444 1439 1437 1432 1436 1437 1436 1436 1437 1439
1498 1496 1494 1493 1491 1489 1487 1485 1483 1482 1479 1477 1476 1475 1474 1473 1464 1460 1460 1460 1460 1461 1461 1460 1456 1456 1453 1450 1447 1445 1441 1439 1439 1439 1440 1442 1438 1436 1434 1437 1435 1434 1432 1432 1433
1494 1494 1492 1489 1489 1486 1485 1482 1480 1478 1475 1474 1473 1472 1471 1463 1461 1460 1460 1458 1457 1457 1457 1458 1457 1455 1452 1448 1445 1442 1441 1437 1435 1436 1435 1439 1431 1428 1433 1434 1431 1429 1425 1426 1427
1491 1491 1490 1487 1486 1485 1482 1480 1477 1474 1470 1469 1470 1470 1465 1459 1456 1455 1456 1454 1453 1453 1453 1454 1454 1452 1450 1448 1443 1440 1438 1436 1425 1428 1427 1433 1414 1423 1427 1426 1418 1418 1416 1417 1418
1489 1487 1487 1485 1483 1482 1479 1475 1473 1470 1468 1467 1468 1469 1461 1455 1455 1455 1455 1453 1451 1450 1450 1451 1453 1451 1448 1446 1445 1436 1436 1431 1424 1424 1420 1418 1410 1412 1413 1415 1410 1403 1401 1407 1409
1486 1485 1484 1483 1480 1478 1475 1472 1470 1468 1466 1465 1467 1471 1457 1454 1453 1454 1452 1451 1449 1448 1447 1448 1448 1445 1441 1441 1435 1429 1428 1422 1419 1417 1416 1419 1407 1409 1408 1406 1401 1401 1402 1402 1402
1484 1484 1482 1479 1478 1476 1474 1471 1470 1469 1466 1460 1457 1451 1448 1451 1450 1449 1447 1446 1445 1444 1441 1440 1443 1429 1428 1430 1428 1423 1418 1414 1407 1405 1408 1408 1410 1406 1402 1401 1400 1398 1399 1399 1400
1482 1482 1480 1477 1476 1477 1475 1475 1478 1478 1464 1451 1449 1448 1449 1451 1449 1445 1445 1445 1441 1438 1435 1434 1425 1420 1424 1420 1416 1415 1416 1411 1408 1407 1411 1409 1403 1398 1398 1395 1396 1394 1392 1394 1395
1480 1480 1478 1476 1474 1476 1478 1474 1478 1476 1468 1446 1442 1443 1444 1448 1446 1443 1443 1441 1437 1434 1429 1426 1414 1414 1413 1414 1414 1409 1407 1409 1415 1410 1409 1409 1405 1397 1385 1385 1385 1384 1385 1389 1387
1479 1479 1478 1476 1476 1477 1478 1473 1473 1474 1466 1439 1442 1440 1442 1445 1443 1440 1440 1440 1434 1430 1426 1419 1414 1411 1406 1400 1404 1408 1399 1404 1411 1415 1419 1405 1405 1391 1372 1364 1368 1372 1377 1379 1380
1477 1476 1478 1476 1474 1477 1478 1474 1472 1475 1453 1436 1437 1441 1440 1442 1439 1436 1434 1432 1428 1427 1427 1416 1410 1406 1404 1394 1392 1397 1397 1402 1407 1410 1411 1407 1407 1385 1372 1365 1361 1367 1373 1377 1380
1474 1474 1475 1476 1477 1476 1474 1472 1472 1472 1445 1433 1436 1437 1441 1438 1436 1433 1431 1427 1423 1417 1414 1409 1406 1398 1394 1393 1391 1395 1396 1401 1405 1406 1411 1399 1398 1389 1375 1358 1358 1366 1374 1376 1379
1471 1473 1472 1474 1477 1474 1472 1473 1464 1450 1430 1436 1440 1442 1443 1439 1431 1426 1424 1421 1419 1421 1415 1410 1398 1394 1388 1388 1391 1390 1402 1420 1420 1409 1404 1388 1383 1377 1370 1365 1362 1367 1372 1377 1380
1469 1472 1472 1474 1474 1473 1472 1469 1458 1430 1434 1446 1448 1449 1444 1435 1427 1426 1424 1420 1416 1421 1424 1419 1396 1385 1381 1379 1394 1395 1393 1404 1403 1398 1391 1378 1383 1367 1357 1362 1366 1370 1375 1378 1381
1471 1472 1474 1473 1473 1474 1474 1462 1445 1448 1454 1457 1454 1445 1439 1435 1432 1429 1426 1423 1417 1426 1437 1423 1393 1376 1374 1380 1391 1387 1391 1388 1398 1394 1404 1393 1363 1359 1361 1369 1364 1371 1376 1381 1385
1470 1473 1472 1473 1472 1472 1469 1460 1453 1456 1461 1461 1459 1451 1447 1442 1439 1433 1428 1422 1420 1429 1433 1429 1422 1382 1374 1380 1386 1383 1383 1395 1395 1405 1399 1390 1382 1389 1374 1368 1368 1372 1377 1384 1391
1472 1472 1471 1472 1470 1470 1467 1454 1459 1461 1464 1463 1458 1455 1453 1449 1446 1439 1433 1427 1430 1427 1429 1423 1423 1392 1391 1385 1380 1373 1386 1388 1393 1388 1401 1378 1378 1387 1387 1382 1376 1376 1382 1389 1396
1471 1471 1471 1470 1468 1463 1458 1463 1467 1462 1461 1458 1455 1452 1450 1449 1446 1440 1434 1427 1426 1427 1427 1422 1417 1403 1388 1377 1375 1365 1377 1390 1392 1388 1376 1386 1399 1400 1388 1382 1382 1383 1389 1395 1400
1468 1467 1470 1469 1465 1459 1460 1462 1462 1459 1457 1455 1453 1451 1446 1443 1445 1434 1429 1426 1427 1428 1427 1427 1411 1400 1389 1383 1367 1364 1367 1378 1392 1385 1393 1393 1402 1406 1394 1390 1395 1396 1398 1398 1401
1469 1469 1467 1466 1469 1467 1466 1461 1460 1459 1458 1455 1454 1449 1448 1446 1441 1437 1428 1424 1428 1426 1425 1427 1418 1411 1395 1373 1363 1367 1368 1380 1386 1391 1395 1392 1402 1401 1394 1394 1402 1404 1403 1404 1406
1467 1467 1467 1465 1465 1468 1471 1469 1464 1462 1461 1458 1450 1446 1445 1442 1435 1428 1428 1427 1427 1423 1420 1418 1408 1400 1387 1382 1366 1378 1385 1396 1393 1386 1390 1385 1392 1399 1401 1406 1410 1411 1410 1410 1410
1468 1466 1468 1467 1469 1471 1468 1465 1463 1463 1464 1458 1454 1450 1448 1445 1438 1429 1427 1427 1426 1418 1416 1412 1395 1390 1381 1368 1370 1388 1398 1394 1382 1387 1384 1384 1389 1406 1409 1416 1418 1419 1416 1416 1415
1468 1467 1466 1464 1464 1463 1462 1463 1462 1464 1461 1457 1455 1451 1445 1441 1439 1434 1430 1423 1420 1416 1412 1409 1402 1379 1374 1365 1369 1385 1384 1382 1396 1406 1405 1409 1415 1415 1417 1426 1428 1426 1424 1422 1419